COSMOS 830

Satellite information

Favourite Embed

Satellite Type and Status

PAYLOADIN ORBIT

Key statistics

Satellite COSMOS 830 at a glance.

Uptime

17983

Days in orbit

Revolutions

≈ 12.5

Per day

Orbit

LEO

Low Earth Orbit

Inclination

74.0

Latest

Satellite identification and parameters

Extended collection of information and parameters for COSMOS 830.

Object identification

Identified? True

Debris? False

Object name: COSMOS 830

International designator: 1976-054F

Object number (NORAD): 8894

Object ID (CCSDS): 8894

Country: COMMONWEALTH OF INDEPENDENT STATES (CIS)

Current information (Y/N): Y

RCS size: MEDIUM

Orbital parameters

Period: 115.546 minutes

Inclination: 73.9984 deg

SMA: 7858.333 km

Apoapsis: 1492.537 km

Periapsis: 1467.859 km

RAAN: 106.2644 deg

Eccentricy: 0.00157015

Argument of periapsis: 18.9391 deg

Mean anomaly: 45.1206 deg

Mean motion: 12.46255594 rev/day

Mean motion (dot): 0.00000008 rev/day2

B* drag term: 0.00016147892 1/REarth

Two-line elements (TLE)

Creation date: Sept. 8, 2025, 6:18 p.m.

Reference frame: TEME

Reference center: EARTH

Epoch: Sept. 8, 2025, 2:10 p.m. UTC

TLE line 0: 0 COSMOS 830

TLE line 1: 1 08894U 76054F 25251.59096108 .00000008 00000-0 16148-3 0 9995

TLE line 2: 2 08894 73.9984 106.2644 0015702 18.9391 45.1206 12.46255594239791

Live tracking on map

Real-time ground track for satellite COSMOS 830.

In-orbit conjunctions

There are no conjunctions computed for COSMOS 830, at the moment. Check back to stay up to date, as we update our databases every day.

Go to all conjunctions

Associated space launch

Military communications satellites

COSMOS 830 was lifted into orbit during the mission ‘Kosmos-3M | Strela-1M 113-120’, on board a Kosmos-3M space rocket.

The launch took place on June 15, 1976, 1:19 p.m. from 132/2.

For more information about the launch, click the button.

Launch to space Kosmos-3M | Strela-1M 113-120
Kosmos-3M | Strela-1M 113-120

Agency: N/A

Status: Launch Successful

Launch date: June 15, 1976, 1:19 p.m. UTC

Rocket: Kosmos-3M

Launch pad: 132/2

Location: Plesetsk Cosmodrome, Russian Federation

...

Latest news about this satellite

There are no fresh news available about this satellite. Check back as we update our databases every day.


Newsletter sign-up

Weekly statistics, charts and insights to help you stay on top of the space industry.